Regional Weather Roundup
Issued by NWS

Home | Current Version | Previous Version | Graphics & Text | Print | Product List | Glossary On
Versions: 1 2 3 4 5 6 7 8 9 10 11 12 13 14 15 16 17 18 19 20 21 22 23 24 25 26 27 28 29 30 31 32 33 34 35 36 37 38 39 40 41 42 43 44 45 46 47 48 49 50
000
ASUS43 KMPX 280810
RWRMN
WEATHER ROUNDUP FOR MINNESOTA
NATIONAL WEATHER SERVICE TWIN CITIES/CHANHASSEN MN
300 AM CDT WED SEP 28 2016


NOTE: "FAIR" INDICATES FEW OR NO CLOUDS BELOW 12,000 FEET WITH NO
SIGNIFICANT WEATHER AND/OR OBSTRUCTIONS TO VISIBILITY. N/A MEANS
CURRENT SKY AND/OR WEATHER CONDITIONS ARE NOT AVAILABLE.

MNZ060>063-068>070-280900-
   Twin Cities Metro

CITY           SKY/WX    TMP DP  RH WIND       PRES   REMARKS
TWIN CITIES    CLOUDY    51  45  79 N14       29.95R
ST PAUL        CLOUDY    50  46  86 NW8       29.96R
CRYSTAL        CLOUDY    50  44  80 NW8       29.95R
BLAINE         PTCLDY    52  48  87 NW8       29.95R
LAKEVILLE      CLOUDY    48  46  93 N7        29.95R
EDEN PRAIRIE   CLOUDY    51  46  83 N7        29.95R
LAKEVILLE      CLOUDY    48  46  93 N7        29.95R
SOUTH ST PAUL  CLOUDY    51  46  82 N8        29.94R
LAKE ELMO      CLOUDY    50  46  87 N5        29.95R
$$
MNZ001>005-007-008-013>017-022>024-027-028-280900-
   Northwest Minnesota

CITY           SKY/WX    TMP DP  RH WIND       PRES   REMARKS
BEMIDJI        CLOUDY    43  43  99 NW3       30.06R
HALLOCK        CLOUDY    41  39  93 N3        30.12R
ROSEAU         CLOUDY    45  39  81 N5        30.10R
WARROAD        CLOUDY    45  41  87 NW6       30.11R
THIEF RVR FALL   N/A     44  41  89 N9        30.10R
CROOKSTON      CLOUDY    43  39  87 N6        30.11R
FOSSTON        CLOUDY    36  36 100 N7        30.09R
DETROIT LAKES  CLOUDY    46  43  87 N10       30.07R
MOORHEAD       CLOUDY    37  36  93 NW3       30.10R
PARK RAPIDS    CLOUDY    47  43  86 N6G17     30.04R
MAHNOMEN       CLOUDY    42  40  93 N5        30.08R
$$
MNZ006-009>011-018-025>026-280900-
   North Central Minnesota

CITY           SKY/WX    TMP DP  RH WIND       PRES   REMARKS
BAUDETTE       PTCLDY    47  45  93 N7        30.08R
FLAG ISLAND    PTCLDY    52  46  82 N10       30.09R
INTL FALLS     MOCLDY    49  47  93 NW12      30.05R
WASKISH        CLEAR     46  45  93 CALM      30.06R
BIG FORK       CLOUDY    48  46  93 N5        30.04R
LONGVILLE      CLOUDY    48  46  93 CALM      30.02R
GRAND RAPIDS   CLOUDY    49  47  93 N8        30.03R
CRANE LAKE     PTCLDY    46  46 100 N3        30.04R
ORR            CLOUDY    48  46  93 CALM      30.00R
COOK           CLEAR     46  46 100 CALM      30.02R
WALKER         CLOUDY    47  45  93 NE8       30.04R
$$
MNZ012-019>021-037-280900-
   Northeast Minnesota

CITY           SKY/WX    TMP DP  RH WIND       PRES   REMARKS
DULUTH         PTCLDY    50  48  93 N10       29.94R
ELY            CLOUDY    50  48  93 CALM      29.99R
HIBBING        MOCLDY    48  46  93 N8        29.99R
EVELETH        PTCLDY    50  47  91 N7        30.00R
DULUTH HARBOR  PTCLDY    54  50  87 N16       29.94R
TWO HARBORS    CLEAR     54  48  82 N6        29.93R
SILVER BAY     PTCLDY    52  48  87 N5        29.93R
GRAND MARAIS     N/A     56  48  74 N9G18     29.93R
G MARAIS ARPRT CLOUDY    48  45  87 N10       29.96R
$$
MNZ029>031-032-039>041-046>048-054>057-064-280900-
   West Central Minnesota

CITY           SKY/WX    TMP DP  RH WIND       PRES   REMARKS
FERGUS FALLS   CLOUDY    43  43 100 NW7       30.09R
MORRIS         CLEAR     41  39  93 NW7       30.04R
ALEXANDRIA     CLOUDY    47  44  90 N12       30.04R
ELBOW LAKE     FAIR      44  42  93 N7        30.06R
WADENA         CLOUDY    45  43  93 N7        30.03R
GLENWOOD       CLOUDY    45  43  93 N12       30.03R
BENSON         CLEAR     41  37  87 N3        30.04R
ORTONVILLE     PTCLDY    45  39  81 CALM      30.05R
MADISON        CLOUDY    48  45  87 N6        30.04R
WILLMAR        CLOUDY    46  45  93 N7        30.03R
$$
MNZ033>034-036-042>043-049>051-058-059-280900-
   Central Minnesota

CITY           SKY/WX    TMP DP  RH WIND       PRES   REMARKS
ST CLOUD       CLOUDY    48  46  93 N6        29.99R
SAUK CENTRE    CLOUDY    46  44  92 N8        30.02R
PAYNESVILLE    CLOUDY    46  46 100 N8        30.01R
AITKIN         CLOUDY    50  46  87 N5        29.99R FOG
PINE RIVER     CLOUDY    48  46  93 N8        30.05R
BRAINERD       CLOUDY    49  46  90 N12       30.01R
STAPLES        CLOUDY    46  45  93 N5        30.03R
LONG PRAIRIE   CLOUDY    45  43  93 N9G17     30.02S
LITTLE FALLS   CLOUDY    46  43  87 N3        30.01S
LITCHFIELD     CLOUDY    48  46  93 N7        30.00R
BUFFALO        CLOUDY    49  45  84 N8        29.99R
MAPLE LAKE     CLOUDY    49  47  91 NW6       30.00R
HUTCHINSON     CLOUDY    49  46  88 N7        30.00R
$$
MNZ037-044-045-052-053-280900-
   East Central Minnesota

CITY           SKY/WX    TMP DP  RH WIND       PRES   REMARKS
PRINCETON        N/A     48  46  93 NW7       29.98R
MORA           CLOUDY    48  45  87 NW9       29.99R
CAMBRIDGE      PTCLDY    52  45  76 N8        29.95R
MOOSE LAKE     CLOUDY    50  46  87 N10       29.94R
HINCKLEY       CLOUDY    50  46  87 NW7       29.96R
CLOQUET        PTCLDY    46  45  93 NW7       29.96R
MCGREGOR       MOCLDY    48  46  93 NW9       29.99R
$$
MNZ071>073-080-081-089-090-097-098-280900-
   Southwest Minnesota

CITY           SKY/WX    TMP DP  RH WIND       PRES   REMARKS
MONTEVIDEO     CLEAR     45  41  87 N7        30.05R
GRANITE FALLS  CLEAR     46  43  91 N6        30.04R
CANBY          CLOUDY    51  45  80 NE3       30.05R
MARSHALL       CLOUDY    45  41  86 N6        30.03R
REDWOOD FALLS  CLOUDY    47  42  83 N6        30.02R
OLIVIA         CLOUDY    46  43  87 N6        30.01R
PIPESTONE      CLOUDY    50  43  76 NE7       30.01R
WINDOM         CLEAR     45  43  93 N8        30.00R
WORTHINGTON    CLOUDY    49  44  83 N9        30.00R
JACKSON        CLEAR     45  41  87 N3        29.99R
TRACY          CLEAR     46  44  90 N7        30.02R
SLAYTON        CLOUDY    46  41  81 N8        30.01R
$$
MNZ065>067-074>077-082>085-091>093-280900-
   South Central Minnesota

CITY           SKY/WX    TMP DP  RH WIND       PRES   REMARKS
MANKATO        CLOUDY    48  45  87 N10       29.98R
NEW ULM        CLOUDY    46  45  93 N10       29.98R
ST JAMES       CLOUDY    48  45  87 NW9       30.00R
FAIRMONT       CLOUDY    49  43  80 N10       29.98R
GLENCOE        CLOUDY    49  47  92 N6        29.98R
FARIBAULT      CLOUDY    50  46  87 N7        29.95R
OWATONNA       CLOUDY    50  43  76 N15       29.94R
WASECA         CLOUDY    50  45  81 N8        29.96R
ALBERT LEA     CLOUDY    50  45  81 N12       29.94R
$$
MNZ078>079-086>088-094>096-280900-
   Southeast Minnesota

CITY           SKY/WX    TMP DP  RH WIND       PRES   REMARKS
ROCHESTER      CLOUDY    48  46  93 N13       29.91R
RED WING       CLOUDY    50  46  87 NW7       29.92R
DODGE CENTER   CLOUDY    48  45  87 N10       29.92R
WINONA         CLOUDY    50  46  87 NW8       29.89R
AUSTIN         CLOUDY    48  43  81 N9        29.92R
PRESTON        CLOUDY    47  44  89 N14       29.90R
$$
ABBREVIATIONS USED IN REMARKS
   TC - TEMPERATURES IN CELSIUS
  WCI - WIND CHILL INDEX
   HX - HEAT INDEX
  VSB - VISIBILITY
$$




USA.gov is the U.S. government's official web portal to all federal, state and local government web resources and services.